Regional Weather Roundup
Issued by NWS

Home | Current Version | Previous Version | Graphics & Text | Print | Product List | Glossary On
Versions: 1 2 3 4 5 6 7 8 9 10 11 12 13 14 15 16 17 18 19 20 21 22 23 24 25 26 27 28 29 30 31 32 33 34 35 36 37 38 39 40 41 42 43 44 45 46 47 48 49 50
018
ASUS45 KCYS 201910
RWRWY

WYOMING REGIONAL WEATHER ROUNDUP
NATIONAL WEATHER SERVICE CHEYENNE WY
100 PM MDT WED SEP 20 2017

NOTE:  "FAIR" INDICATES FEW OR NO CLOUDS BELOW 12,000 FEET
WITH NO SIGNIFICANT WEATHER AND/OR OBSTRUCTIONS TO VISIBILITY.

WYZ001-202000-
YELLOWSTONE NATIONAL PARK

CITY           SKY/WX    TMP DP  RH WIND       PRES   REMARKS
LK YELLOWSTONE   N/A     39  31  72 VRB7      29.83F WCI  34
W YELLOWSTONE  NOT AVBL

$$
WYZ002>013-054>058-071-098>099-202000-
NORTHERN WYOMING

CITY           SKY/WX    TMP DP  RH WIND       PRES   REMARKS
JACKSON        CLOUDY    46  29  51 S5        29.86S
CODY           NOT AVBL
GREYBULL       FAIR      62  30  29 SE15G22   29.71F
WORLAND        FAIR      64  29  26 SW24G31   29.75F
SHERIDAN       LGT RAIN  65  23  20 SW22G30   29.71S
BUFFALO        FAIR      61  20  20 SW16G31   29.76S
GILLETTE       FAIR      63  24  22 SW23G33   29.74F
HULETT         FAIR      61  25  25 SW18G30   29.77F
NEWCASTLE      FAIR      63  19  19 SW22G28   29.84F

$$
WYZ014>020-022>026-101>103-202000-
CENTRAL WYOMING

CITY           SKY/WX    TMP DP  RH WIND       PRES   REMARKS
BIG PINEY      FAIR      53  27  36 W24G33    29.95F
PINEDALE       CLOUDY    48  27  43 SW16G23   29.95F
DUBOIS         FAIR      46  27  46 W20G29    29.84S
LANDER           N/A    N/A N/A N/A MISG      29.82S
RIVERTON       FAIR      58  19  22 S6        29.83F
CASPER         FAIR      62  24  23 SW31G47   29.85F
DOUGLAS        FAIR      66  26  22 SW24G33   29.86F

$$
WYZ021-027>030-104>119-202000-
SOUTHERN WYOMING

CITY           SKY/WX    TMP DP  RH WIND       PRES   REMARKS
EVANSTON       FAIR      57  31  37 SW29G35   29.95F
KEMMERER         N/A     54  27  35 SW17G29   29.96F
FORT BRIDGER   FAIR      58  30  34 W22G31    29.98F
ROCK SPRINGS   FAIR      54  27  35 W10G21    29.97F
DIXON          FAIR      59  36  41 W8        30.00F
RAWLINS        FAIR      54  36  50 SW16      29.96F
SARATOGA       FAIR      59  32  36 W13G18    29.98F
LARAMIE        PTSUNNY   66  31  27 SW29G37   29.97S
CHEYENNE       FAIR      61  31  32 S14G28    29.97F
TORRINGTON     FAIR      72  31  22 S18G26    29.86F
PINE BLUFFS    FAIR      64  32  29 S17G23    29.96F

$$




USA.gov is the U.S. government's official web portal to all federal, state and local government web resources and services.